Date String (YYYY-MM-DD hh:mm:ss) UTC,Instrument flags,Ambient pressure (hPa),Sample flow (lpm),Bypass flow (lpm),Sample temperature (°C),Ambient temperature (°C),ASC tube jacket temperature (°C),LED temperature (°C),Box temperature (°C),Sample RH (%),Span deviation,Mass concentration (μg/m³),Mass concentration (μg/m³),Mass concentration (μg/m³)
DateTimeUTC,F1_M11,P_M11,Q1_M11,Q2_M11,T1_M11,T2_M11,T3_M11,T4_M11,T5_M11,U1_M11,ZSPAN_M11,X0_M11,X2_M11,X1_M11
2022-12-04 03:00:00,,0828.8,5.00,0.00,23.6,22.2,00.0,32.6,25.5,11.2,0003.0,0020.67,0006.80,0005.31
2022-12-04 03:01:00,,0829.2,5.00,0.00,23.6,22.2,00.0,32.6,25.4,11.2,0002.2,0020.51,0006.78,0005.31
2022-12-04 03:02:00,,0829.1,4.99,0.00,23.6,22.2,00.0,32.6,25.4,11.2,0001.8,0021.89,0006.75,0005.30
2022-12-04 03:03:00,,0829.0,5.00,0.00,23.6,22.2,00.0,32.6,25.5,11.2,0000.2,0021.89,0006.68,0005.28
2022-12-04 03:04:00,,0829.2,5.00,0.00,23.6,22.2,00.0,32.6,25.5,11.2,0000.0,0020.63,0006.62,0005.25
2022-12-04 03:05:00,,0828.9,5.01,0.00,23.6,22.2,00.0,32.6,25.5,11.2,0000.0,0021.29,0006.64,0005.25
2022-12-04 03:06:00,,0828.7,5.00,0.00,23.6,22.2,00.0,32.6,25.5,11.2,0000.0,0022.32,0006.73,0005.25
2022-12-04 03:07:00,,0828.7,5.00,0.00,23.6,22.2,00.0,32.6,25.3,11.2,0000.0,0023.01,0006.72,0005.26
2022-12-04 03:08:00,,0828.8,4.99,0.00,23.6,22.2,00.0,32.6,25.3,11.3,0000.0,0021.41,0006.64,0005.26
2022-12-04 03:09:00,,0828.7,4.99,0.00,23.6,22.2,00.0,32.6,25.3,11.3,0000.0,0020.83,0006.61,0005.25
2022-12-04 03:10:00,,0828.7,5.01,0.00,23.6,22.1,00.0,32.5,25.3,11.3,0000.0,0021.50,0006.66,0005.26
2022-12-04 03:11:00,,0828.8,5.01,0.00,23.6,22.1,00.0,32.5,25.2,11.3,0000.0,0022.60,0006.68,0005.26
2022-12-04 03:12:00,,0828.7,4.99,0.00,23.5,22.1,00.0,32.5,25.3,11.3,0000.0,0022.42,0006.67,0005.27
2022-12-04 03:13:00,,0828.6,4.99,0.00,23.5,22.1,00.0,32.5,25.3,11.3,0000.0,0021.42,0006.66,0005.28
2022-12-04 03:14:00,,0828.9,5.01,0.00,23.5,22.1,00.0,32.5,25.3,11.4,0000.0,0020.15,0006.71,0005.31
2022-12-04 03:15:00,,0828.5,5.01,0.00,23.5,22.1,00.0,32.5,25.4,11.4,0000.1,0019.59,0006.76,0005.32
2022-12-04 03:16:00,,0828.5,4.99,0.00,23.5,22.1,00.0,32.5,25.4,11.4,0000.2,0018.72,0006.78,0005.34
2022-12-04 03:17:00,,0828.8,4.99,0.00,23.5,22.1,00.0,32.5,25.4,11.4,0000.0,0017.06,0006.74,0005.34
2022-12-04 03:18:00,,0828.7,5.00,0.00,23.5,22.1,00.0,32.5,25.4,11.5,0000.0,0016.09,0006.71,0005.35
2022-12-04 03:19:00,,0828.9,5.00,0.00,23.5,22.1,00.0,32.5,25.3,11.4,0001.4,0016.91,0006.72,0005.36
2022-12-04 03:20:00,,0828.8,5.00,0.00,23.5,22.1,00.0,32.5,25.2,11.5,0000.0,0017.56,0006.69,0005.36
2022-12-04 03:21:00,,0828.9,5.00,0.00,23.5,22.1,00.0,32.5,25.2,11.6,0000.0,0017.59,0006.61,0005.35
2022-12-04 03:22:00,,0828.7,5.00,0.00,23.5,22.0,00.0,32.5,25.2,11.6,0000.0,0017.62,0006.61,0005.35
2022-12-04 03:23:00,,0828.8,5.00,0.00,23.5,22.0,00.0,32.5,25.2,11.4,0000.0,0017.98,0006.66,0005.35
2022-12-04 03:24:00,,0829.0,5.00,0.00,23.5,22.0,00.0,32.4,25.2,11.3,0000.0,0017.97,0006.66,0005.33
2022-12-04 03:25:00,,0828.9,5.00,0.00,23.5,22.0,00.0,32.4,25.2,11.3,0000.0,0017.70,0006.62,0005.30
2022-12-04 03:26:00,,0828.8,5.00,0.00,23.5,22.0,00.0,32.4,25.2,11.3,0000.0,0017.56,0006.60,0005.29
2022-12-04 03:27:00,,0828.7,5.00,0.00,23.4,22.0,00.0,32.4,25.0,11.4,0000.0,0017.45,0006.57,0005.29
2022-12-04 03:28:00,,0829.0,4.99,0.00,23.4,22.0,00.0,32.4,25.0,11.5,0000.0,0017.74,0006.56,0005.28
2022-12-04 03:29:00,,0829.1,4.99,0.00,23.4,21.9,00.0,32.4,25.1,11.4,0000.0,0017.57,0006.58,0005.26
2022-12-04 03:30:00,,0828.7,5.00,0.00,23.4,21.9,00.0,32.4,25.1,11.2,0000.0,0017.38,0006.59,0005.23
2022-12-04 03:31:00,,0829.0,5.00,0.00,23.4,21.9,00.0,32.4,25.1,11.1,0000.0,0017.37,0006.62,0005.22
2022-12-04 03:32:00,,0829.0,5.00,0.00,23.4,21.9,00.0,32.4,25.2,11.0,0000.0,0017.26,0006.63,0005.19
2022-12-04 03:33:00,,0829.0,5.00,0.00,23.4,21.9,00.0,32.4,25.1,10.9,0000.0,0017.24,0006.59,0005.15
2022-12-04 03:34:00,,0828.9,5.00,0.00,23.4,21.9,00.0,32.4,25.1,10.9,0000.0,0017.28,0006.50,0005.09
2022-12-04 03:35:00,,0829.0,5.00,0.00,23.4,21.9,00.0,32.3,25.0,11.1,0000.0,0017.75,0006.47,0005.07
2022-12-04 03:36:00,,0828.9,4.99,0.00,23.4,21.9,00.0,32.3,25.0,11.7,0000.0,0018.10,0006.50,0005.09
2022-12-04 03:37:00,,0829.0,5.00,0.00,23.3,21.8,00.0,32.3,25.0,11.7,0000.0,0019.10,0006.56,0005.11
2022-12-04 03:38:00,,0829.0,5.01,0.00,23.3,21.8,00.0,32.3,25.0,11.7,0000.1,0019.95,0006.59,0005.11
2022-12-04 03:39:00,,0829.1,5.00,0.00,23.3,21.8,00.0,32.3,25.0,11.5,0001.0,0019.62,0006.60,0005.12
2022-12-04 03:40:00,,0828.8,5.00,0.00,23.3,21.8,00.0,32.3,25.1,11.4,0000.1,0019.81,0006.57,0005.10
2022-12-04 03:41:00,,0828.7,5.00,0.00,23.3,21.9,00.0,32.3,25.1,11.4,0000.0,0019.88,0006.54,0005.10
2022-12-04 03:42:00,,0829.2,5.00,0.00,23.3,21.9,00.0,32.3,25.1,11.3,0000.0,0019.18,0006.50,0005.10
2022-12-04 03:43:00,,0829.2,4.99,0.00,23.3,21.9,00.0,32.3,25.1,11.4,0000.0,0018.49,0006.46,0005.11
2022-12-04 03:44:00,,0828.7,5.00,0.00,23.3,21.9,00.0,32.3,25.1,11.4,0000.0,0017.34,0006.46,0005.13
2022-12-04 03:45:00,,0829.0,5.00,0.00,23.3,21.8,00.0,32.3,25.0,11.4,0000.0,0016.89,0006.46,0005.15
2022-12-04 03:46:00,,0829.3,5.00,0.00,23.3,21.8,00.0,32.3,25.0,11.5,0000.4,0017.27,0006.49,0005.17
2022-12-04 03:47:00,,0829.2,5.01,0.00,23.3,21.8,00.0,32.3,25.0,11.4,0000.7,0018.14,0006.46,0005.15
2022-12-04 03:48:00,,0829.3,5.01,0.00,23.3,21.8,00.0,32.3,25.0,11.4,0000.9,0017.63,0006.41,0005.11
2022-12-04 03:49:00,,0829.0,5.00,0.00,23.3,21.8,00.0,32.3,25.0,11.4,0000.6,0017.68,0006.38,0005.09
2022-12-04 03:50:00,,0828.8,4.99,0.00,23.3,21.8,00.0,32.3,25.0,11.5,0000.0,0017.38,0006.34,0005.07
2022-12-04 03:51:00,,0829.3,5.01,0.00,23.3,21.8,00.0,32.2,25.0,11.4,0000.0,0017.89,0006.33,0005.07
2022-12-04 03:52:00,,0828.8,5.01,0.00,23.3,21.8,00.0,32.2,25.0,11.3,0000.0,0017.85,0006.28,0005.05
2022-12-04 03:53:00,,0829.0,4.99,0.00,23.3,21.8,00.0,32.2,25.1,11.3,0000.0,0018.17,0006.28,0005.04
2022-12-04 03:54:00,,0828.7,4.99,0.00,23.3,21.8,00.0,32.2,25.1,11.1,0000.0,0018.62,0006.27,0005.03
2022-12-04 03:55:00,,0829.1,4.99,0.00,23.3,21.9,00.0,32.2,25.1,10.9,0000.0,0019.25,0006.24,0005.00
2022-12-04 03:56:00,,0828.9,5.01,0.00,23.3,21.9,00.0,32.2,25.1,10.9,0000.0,0019.72,0006.28,0004.99
2022-12-04 03:57:00,,0829.1,5.01,0.00,23.3,21.9,00.0,32.2,25.1,10.9,0000.0,0019.03,0006.28,0004.96
2022-12-04 03:58:00,,0828.8,5.00,0.00,23.3,21.9,00.0,32.2,25.1,10.9,0000.0,0018.26,0006.27,0004.93
2022-12-04 03:59:00,,0828.9,4.99,0.00,23.3,21.9,00.0,32.2,25.1,10.9,0000.0,0017.42,0006.23,0004.91
